Location: Vulcan
(50.4000°N, 113.2500°W)
Time: 19:38:52
(UTC-07:00)

S-56A Canister/Altair - All Passes

Search period start: 20 November 2019 00:00
Search period end: 30 November 2019 00:00
Orbit: 634 x 2498 km, 38.9° (Epoch: 19 November)

Date Brightness Start Highest point End Pass type
(mag) Time Alt. Az. Time Alt. Az. Time Alt. Az.
20 Nov - 15:42:58 10° SSW 15:50:04 19° SSE 15:55:44 10° ESE daylight
20 Nov - 17:45:29 10° SW 17:53:46 31° S 17:59:42 10° ESE visible
20 Nov - 19:50:21 10° WSW 19:57:05 30° SSW 20:02:01 10° SE visible
20 Nov - 21:56:28 10° WSW 21:59:34 14° SSW 22:02:16 10° S visible
21 Nov - 15:09:59 10° S 15:17:11 19° SSE 15:23:01 10° ESE daylight
21 Nov - 17:12:07 10° SW 17:20:59 32° SSE 17:27:19 10° ESE visible
21 Nov - 19:16:59 10° WSW 19:24:28 33° S 19:29:49 10° SE visible
21 Nov - 21:22:56 10° WSW 21:27:06 17° SSW 21:30:34 10° S visible
22 Nov - 14:37:05 10° S 14:44:16 18° SSE 14:50:12 10° ESE daylight
22 Nov - 16:38:44 10° SW 16:48:09 32° SSE 16:54:54 10° ESE daylight
22 Nov - 18:43:34 10° WSW 18:51:48 35° S 18:57:35 10° ESE visible
22 Nov - 20:49:26 10° WSW 20:54:37 21° SSW 20:58:43 10° SSE visible
23 Nov - 14:04:17 10° S 14:11:18 17° SE 14:17:15 10° ESE daylight
23 Nov - 16:05:21 10° SW 16:15:14 32° SSE 16:22:25 10° ESE daylight
23 Nov - 18:10:05 10° WSW 18:19:04 37° S 18:25:18 10° ESE visible
23 Nov - 20:15:57 10° WSW 20:22:05 24° SSW 20:26:45 10° SSE visible
24 Nov - 13:31:39 10° S 13:38:20 16° SE 13:44:07 10° ESE daylight
24 Nov - 15:31:59 10° SW 15:42:17 31° SSE 15:49:53 10° ESE daylight
24 Nov - 17:36:33 10° WSW 17:46:16 39° S 17:52:59 10° ESE visible
24 Nov - 19:42:26 10° WSW 19:49:31 28° SSW 19:54:43 10° SSE visible
25 Nov - 12:59:13 10° SSE 13:05:20 14° SE 13:10:47 10° ESE daylight
25 Nov - 14:58:39 10° SSW 15:09:17 31° SSE 15:17:17 10° ESE daylight
25 Nov - 17:03:00 10° WSW 17:13:24 40° S 17:20:37 10° ESE visible
25 Nov - 19:08:53 10° WSW 19:16:53 31° SSW 19:22:35 10° SE visible
25 Nov - 21:16:56 10° WSW 21:19:07 11° SW 21:21:05 10° SSW visible
26 Nov - 12:27:04 10° SSE 12:32:19 13° SE 12:37:08 10° ESE daylight
26 Nov - 14:25:22 10° SSW 14:36:14 30° SSE 14:44:37 10° E daylight
26 Nov - 16:29:26 10° WSW 16:40:29 41° S 16:48:12 10° ESE daylight
26 Nov - 18:35:17 10° WSW 18:44:11 35° SSW 18:50:25 10° SE visible
26 Nov - 20:42:35 10° WSW 20:46:38 15° SW 20:50:03 10° S visible
27 Nov - 11:55:28 10° SSE 11:59:19 12° SE 12:02:57 10° ESE daylight
27 Nov - 13:52:09 10° SSW 14:03:09 29° SSE 14:11:52 10° E daylight
27 Nov - 15:55:52 10° SW 16:07:30 42° S 16:15:44 10° ESE daylight
27 Nov - 18:01:40 10° WSW 18:11:26 38° SSW 18:18:11 10° SE visible
27 Nov - 20:08:38 10° WSW 20:14:07 18° SW 20:18:30 10° S visible
28 Nov - 13:19:01 10° SSW 13:30:01 28° SSE 13:39:00 10° E daylight
28 Nov - 15:22:19 10° SW 15:34:26 42° S 15:43:12 10° ESE daylight
28 Nov - 17:28:01 10° WSW 17:38:35 41° SSW 17:45:55 10° SE visible
28 Nov - 19:34:49 10° W 19:41:33 22° SW 19:46:44 10° SSE visible
29 Nov - 12:45:59 10° SSW 12:56:52 26° SSE 13:06:02 10° E daylight
29 Nov - 14:48:47 10° SW 15:01:19 42° SSE 15:10:36 10° ESE daylight
29 Nov - 16:54:20 10° WSW 17:05:41 43° S 17:13:33 10° ESE visible
29 Nov - 19:01:01 10° W 19:08:56 26° SSW 19:14:48 10° SSE visible
